Year,Month,Day,Hour,Minute,Value (Times are PST for temperature in C)
2008,04,13,00,00,10.90
2008,04,13,00,02,10.80
2008,04,13,00,03,10.80
2008,04,13,00,04,10.80
2008,04,13,00,06,10.80
2008,04,13,00,07,10.80
2008,04,13,00,08,10.80
2008,04,13,00,09,10.70
2008,04,13,00,10,10.70
2008,04,13,00,11,10.70
2008,04,13,00,12,10.70
2008,04,13,00,13,10.70
2008,04,13,00,14,10.70
2008,04,13,00,15,10.70
2008,04,13,00,16,10.70
2008,04,13,00,17,10.60
2008,04,13,00,18,10.60
2008,04,13,00,19,10.60
2008,04,13,00,20,10.60
2008,04,13,00,21,10.60
2008,04,13,00,22,10.60
2008,04,13,00,27,10.60
2008,04,13,00,28,10.60
2008,04,13,00,29,10.60
2008,04,13,00,30,10.60
2008,04,13,00,31,10.60
2008,04,13,00,32,10.60
2008,04,13,00,33,10.60
2008,04,13,00,35,10.60
2008,04,13,00,37,10.60
2008,04,13,00,38,10.60
2008,04,13,00,39,10.60
2008,04,13,00,40,10.60
2008,04,13,00,41,10.50
2008,04,13,00,42,10.50
2008,04,13,00,43,10.40
2008,04,13,00,44,10.40
2008,04,13,00,45,10.40
2008,04,13,00,46,10.40
2008,04,13,00,47,10.40
2008,04,13,00,51,10.30
2008,04,13,00,52,10.30
2008,04,13,00,53,10.30
2008,04,13,00,54,10.30
2008,04,13,00,56,10.30
2008,04,13,00,57,10.30
2008,04,13,00,58,10.30
2008,04,13,00,59,10.20
2008,04,13,01,00,10.20
2008,04,13,01,01,10.20
2008,04,13,01,02,10.20
2008,04,13,01,03,10.20
2008,04,13,01,04,10.20
2008,04,13,01,06,10.20
2008,04,13,01,07,10.20
2008,04,13,01,08,10.20
2008,04,13,01,09,10.20
2008,04,13,01,11,10.20
2008,04,13,01,12,10.20
2008,04,13,01,13,10.10
2008,04,13,01,14,10.10
2008,04,13,01,15,10.10
2008,04,13,01,16,10.10
2008,04,13,01,17,10.10
2008,04,13,01,19,10.10
2008,04,13,01,20,10.10
2008,04,13,01,21,10.10
2008,04,13,01,22,10.10
2008,04,13,01,23,10.10
2008,04,13,01,24,10.10
2008,04,13,01,25,10.10
2008,04,13,01,26,10.10
2008,04,13,01,27,10.10
2008,04,13,01,28,10.00
2008,04,13,01,29,10.00
2008,04,13,01,30,10.00
2008,04,13,01,31,10.00
2008,04,13,01,32,10.00
2008,04,13,01,33,9.90
2008,04,13,01,34,9.90
2008,04,13,01,35,9.90
2008,04,13,01,36,9.90
2008,04,13,01,38,9.80
2008,04,13,01,39,9.80
2008,04,13,01,40,9.80
2008,04,13,01,41,9.80
2008,04,13,01,42,9.80
2008,04,13,01,43,9.80
2008,04,13,01,44,9.70
2008,04,13,01,45,9.70
2008,04,13,01,46,9.70
2008,04,13,01,47,9.70
2008,04,13,01,48,9.60
2008,04,13,01,49,9.60
2008,04,13,01,50,9.60
2008,04,13,01,51,9.60
2008,04,13,01,52,9.50
2008,04,13,01,53,9.50
2008,04,13,01,54,9.40
2008,04,13,01,55,9.40
2008,04,13,01,56,9.40
2008,04,13,01,58,9.30
2008,04,13,01,59,9.30
2008,04,13,02,00,9.30
2008,04,13,02,01,9.30
2008,04,13,02,03,9.30
2008,04,13,02,04,9.30
2008,04,13,02,05,9.30
2008,04,13,02,06,9.20
2008,04,13,02,08,9.20
2008,04,13,02,09,9.20
2008,04,13,02,10,9.20
2008,04,13,02,11,9.20
2008,04,13,02,12,9.20
2008,04,13,02,13,9.20
2008,04,13,02,14,9.10
2008,04,13,02,15,9.10
2008,04,13,02,16,9.10
2008,04,13,02,17,9.10
2008,04,13,02,18,9.10
2008,04,13,02,19,9.10
2008,04,13,02,20,9.00
2008,04,13,02,21,9.00
2008,04,13,02,22,9.00
2008,04,13,02,23,9.00
2008,04,13,02,24,8.90
2008,04,13,02,25,8.90
2008,04,13,02,26,8.90
2008,04,13,02,27,8.90
2008,04,13,02,28,8.90
2008,04,13,02,29,8.80
2008,04,13,02,30,8.80
2008,04,13,02,31,8.80
2008,04,13,02,32,8.80
2008,04,13,02,33,8.80
2008,04,13,02,34,8.80
2008,04,13,02,35,8.80
2008,04,13,02,36,8.70
2008,04,13,02,37,8.70
2008,04,13,02,38,8.70
2008,04,13,02,39,8.70
2008,04,13,02,40,8.70
2008,04,13,02,41,8.60
2008,04,13,02,42,8.60
2008,04,13,02,43,8.60
2008,04,13,02,44,8.60
2008,04,13,02,45,8.60
2008,04,13,02,47,8.50
2008,04,13,02,48,8.50
2008,04,13,02,49,8.40
2008,04,13,02,50,8.40
2008,04,13,02,51,8.40
2008,04,13,02,52,8.40
2008,04,13,02,53,8.40
2008,04,13,02,54,8.40
2008,04,13,02,55,8.30
2008,04,13,02,56,8.30
2008,04,13,02,57,8.30
2008,04,13,02,58,8.30
2008,04,13,02,59,8.30
2008,04,13,03,00,8.30
2008,04,13,03,01,8.20
2008,04,13,03,02,8.20
2008,04,13,03,03,8.20
2008,04,13,03,04,8.20
2008,04,13,03,05,8.20
2008,04,13,03,06,8.20
2008,04,13,03,07,8.10
2008,04,13,03,08,8.10
2008,04,13,03,09,8.10
2008,04,13,03,10,8.10
2008,04,13,03,11,8.10
2008,04,13,03,12,8.10
2008,04,13,03,13,8.00
2008,04,13,03,14,8.00
2008,04,13,03,15,8.00
2008,04,13,03,16,7.90
2008,04,13,03,17,7.90
2008,04,13,03,18,7.90
2008,04,13,03,20,7.90
2008,04,13,03,21,7.90
2008,04,13,03,22,7.80
2008,04,13,03,23,7.80
2008,04,13,03,24,7.80
2008,04,13,03,25,7.80
2008,04,13,03,26,7.80
2008,04,13,03,27,7.80
2008,04,13,03,28,7.80
2008,04,13,03,29,7.80
2008,04,13,03,30,7.80
2008,04,13,03,31,7.70
2008,04,13,03,32,7.70
2008,04,13,03,33,7.70
2008,04,13,03,34,7.70
2008,04,13,03,35,7.70
2008,04,13,03,36,7.70
2008,04,13,03,37,7.70
2008,04,13,03,38,7.70
2008,04,13,03,39,7.70
2008,04,13,03,40,7.60
2008,04,13,03,41,7.60
2008,04,13,03,42,7.60
2008,04,13,03,43,7.60
2008,04,13,03,44,7.60
2008,04,13,03,45,7.60
2008,04,13,03,46,7.60
2008,04,13,03,47,7.60
2008,04,13,03,48,7.60
2008,04,13,03,49,7.60
2008,04,13,03,50,7.50
2008,04,13,03,51,7.50
2008,04,13,03,52,7.50
2008,04,13,03,53,7.50
2008,04,13,03,54,7.50
2008,04,13,03,55,7.50
2008,04,13,03,56,7.40
2008,04,13,03,57,7.40
2008,04,13,03,58,7.40
2008,04,13,03,59,7.40
2008,04,13,04,00,7.40
2008,04,13,04,01,7.40
2008,04,13,04,02,7.40
2008,04,13,04,03,7.40
2008,04,13,04,04,7.40
2008,04,13,04,05,7.40
2008,04,13,04,06,7.40
2008,04,13,04,07,7.40
2008,04,13,04,08,7.40
2008,04,13,04,09,7.40
2008,04,13,04,10,7.30
2008,04,13,04,11,7.30
2008,04,13,04,12,7.30
2008,04,13,04,13,7.30
2008,04,13,04,14,7.30
2008,04,13,04,15,7.30
2008,04,13,04,16,7.30
2008,04,13,04,17,7.30
2008,04,13,04,19,7.20
2008,04,13,04,20,7.20
2008,04,13,04,21,7.20
2008,04,13,04,22,7.20
2008,04,13,04,23,7.20
2008,04,13,04,24,7.20
2008,04,13,04,25,7.20
2008,04,13,04,26,7.20
2008,04,13,04,27,7.10
2008,04,13,04,28,7.10
2008,04,13,04,29,7.10
2008,04,13,04,30,7.10
2008,04,13,04,31,7.00
2008,04,13,04,32,7.00
2008,04,13,04,33,6.90
2008,04,13,04,34,6.90
2008,04,13,04,35,6.90
2008,04,13,04,36,6.90
2008,04,13,04,37,6.90
2008,04,13,04,38,6.80
2008,04,13,04,39,6.80
2008,04,13,04,40,6.80
2008,04,13,04,41,6.80
2008,04,13,04,42,6.80
2008,04,13,04,43,6.80
2008,04,13,04,44,6.70
2008,04,13,04,45,6.70
2008,04,13,04,46,6.70
2008,04,13,04,47,6.70
2008,04,13,04,48,6.60
2008,04,13,04,49,6.60
2008,04,13,04,50,6.60
2008,04,13,04,51,6.60
2008,04,13,04,52,6.50
2008,04,13,04,53,6.50
2008,04,13,04,54,6.40
2008,04,13,04,55,6.40
2008,04,13,04,56,6.40
2008,04,13,04,57,6.40
2008,04,13,04,58,6.30
2008,04,13,04,59,6.30
2008,04,13,05,00,6.30
2008,04,13,05,01,6.30
2008,04,13,05,02,6.30
2008,04,13,05,03,6.30
2008,04,13,05,04,6.30
2008,04,13,05,05,6.30
2008,04,13,05,06,6.20
2008,04,13,05,07,6.20
2008,04,13,05,08,6.20
2008,04,13,05,09,6.20
2008,04,13,05,10,6.20
2008,04,13,05,11,6.20
2008,04,13,05,12,6.20
2008,04,13,05,13,6.20
2008,04,13,05,14,6.20
2008,04,13,05,15,6.20
2008,04,13,05,16,6.20
2008,04,13,05,17,6.20
2008,04,13,05,18,6.20
2008,04,13,05,19,6.20
2008,04,13,05,21,6.20
2008,04,13,05,22,6.20
2008,04,13,05,23,6.20
2008,04,13,05,24,6.30
2008,04,13,05,25,6.30
2008,04,13,05,26,6.30
2008,04,13,05,27,6.30
2008,04,13,05,28,6.30
2008,04,13,05,29,6.30
2008,04,13,05,30,6.30
2008,04,13,05,31,6.30
2008,04,13,05,32,6.30
2008,04,13,05,33,6.30
2008,04,13,05,34,6.30
2008,04,13,05,35,6.20
2008,04,13,05,36,6.20
2008,04,13,05,37,6.20
2008,04,13,05,38,6.20
2008,04,13,05,39,6.20
2008,04,13,05,40,6.20
2008,04,13,05,41,6.20
2008,04,13,05,42,6.20
2008,04,13,05,43,6.20
2008,04,13,05,44,6.20
2008,04,13,05,45,6.20
2008,04,13,05,46,6.20
2008,04,13,05,47,6.20
2008,04,13,05,48,6.20
2008,04,13,05,49,6.20
2008,04,13,05,50,6.10
2008,04,13,05,51,6.10
2008,04,13,05,52,6.10
2008,04,13,05,53,6.10
2008,04,13,05,54,6.10
2008,04,13,05,55,6.10
2008,04,13,05,56,6.10
2008,04,13,05,57,6.10
2008,04,13,05,58,6.10
2008,04,13,05,59,6.00
2008,04,13,06,00,6.00
2008,04,13,06,02,5.90
2008,04,13,06,03,5.90
2008,04,13,06,04,5.90
2008,04,13,06,05,5.80
2008,04,13,06,06,5.80
2008,04,13,06,07,5.80
2008,04,13,06,08,5.80
2008,04,13,06,09,5.80
2008,04,13,06,10,5.70
2008,04,13,06,11,5.70
2008,04,13,06,12,5.70
2008,04,13,06,13,5.70
2008,04,13,06,14,5.60
2008,04,13,06,15,5.60
2008,04,13,06,16,5.60
2008,04,13,06,17,5.50
2008,04,13,06,18,5.50
2008,04,13,06,19,5.40
2008,04,13,06,20,5.40
2008,04,13,06,21,5.40
2008,04,13,06,22,5.40
2008,04,13,06,23,5.30
2008,04,13,06,24,5.30
2008,04,13,06,25,5.20
2008,04,13,06,26,5.20
2008,04,13,06,27,5.20
2008,04,13,06,28,5.10
2008,04,13,06,29,5.10
2008,04,13,06,30,5.10
2008,04,13,06,31,5.10
2008,04,13,06,32,5.00
2008,04,13,06,33,4.90
2008,04,13,06,34,4.90
2008,04,13,06,35,4.80
2008,04,13,06,36,4.80
2008,04,13,06,37,4.80
2008,04,13,06,38,4.80
2008,04,13,06,39,4.70
2008,04,13,06,40,4.70
2008,04,13,06,41,4.70
2008,04,13,06,42,4.60
2008,04,13,06,43,4.60
2008,04,13,06,44,4.60
2008,04,13,06,45,4.50
2008,04,13,06,46,4.50
2008,04,13,06,47,4.40
2008,04,13,06,48,4.40
2008,04,13,06,49,4.40
2008,04,13,06,50,4.30
2008,04,13,06,51,4.30
2008,04,13,06,52,4.30
2008,04,13,06,53,4.30
2008,04,13,06,54,4.20
2008,04,13,06,55,4.20
2008,04,13,06,56,4.20
2008,04,13,06,57,4.20
2008,04,13,06,58,4.10
2008,04,13,06,59,4.10
2008,04,13,07,00,4.10
2008,04,13,07,01,4.10
2008,04,13,07,02,4.00
2008,04,13,07,03,4.00
2008,04,13,07,04,4.00
2008,04,13,07,05,3.90
2008,04,13,07,06,3.90
2008,04,13,07,07,3.90
2008,04,13,07,08,3.90
2008,04,13,07,09,3.90
2008,04,13,07,10,3.90
2008,04,13,07,11,3.90
2008,04,13,07,12,3.80
2008,04,13,07,13,3.80
2008,04,13,07,14,3.80
2008,04,13,07,15,3.80
2008,04,13,07,16,3.80
2008,04,13,07,17,3.80
2008,04,13,07,18,3.80
2008,04,13,07,19,3.80
2008,04,13,07,20,3.80
2008,04,13,07,22,3.80
2008,04,13,07,23,3.80
2008,04,13,07,24,3.80
2008,04,13,07,25,3.80
2008,04,13,07,26,3.80
2008,04,13,07,27,3.80
2008,04,13,07,28,3.80
2008,04,13,07,29,3.80
2008,04,13,07,30,3.80
2008,04,13,07,31,3.80
2008,04,13,07,32,3.80
2008,04,13,07,33,3.80
2008,04,13,07,34,3.80
2008,04,13,07,35,3.80
2008,04,13,07,36,3.80
2008,04,13,07,37,3.80
2008,04,13,07,39,3.80
2008,04,13,07,40,3.80
2008,04,13,07,41,3.80
2008,04,13,07,42,3.80
2008,04,13,07,43,3.80
2008,04,13,07,44,3.80
2008,04,13,07,45,3.80
2008,04,13,07,46,3.90
2008,04,13,07,47,3.90
2008,04,13,07,48,3.90
2008,04,13,07,49,3.90
2008,04,13,07,50,3.90
2008,04,13,07,51,3.90
2008,04,13,07,52,3.90
2008,04,13,07,53,3.90
2008,04,13,07,54,3.90
2008,04,13,07,55,4.00
2008,04,13,07,56,4.00
2008,04,13,07,57,4.00
2008,04,13,07,58,4.00
2008,04,13,07,59,4.10
2008,04,13,08,00,4.10
2008,04,13,08,01,4.10
2008,04,13,08,02,4.10
2008,04,13,08,03,4.10
2008,04,13,08,04,4.10
2008,04,13,08,05,4.10
2008,04,13,08,06,4.10
2008,04,13,08,07,4.20
2008,04,13,08,08,4.20
2008,04,13,08,09,4.20
2008,04,13,08,10,4.20
2008,04,13,08,11,4.20
2008,04,13,08,12,4.30
2008,04,13,08,13,4.30
2008,04,13,08,14,4.30
2008,04,13,08,15,4.30
2008,04,13,08,16,4.30
2008,04,13,08,17,4.40
2008,04,13,08,18,4.40
2008,04,13,08,19,4.40
2008,04,13,08,20,4.40
2008,04,13,08,21,4.50
2008,04,13,08,22,4.50
2008,04,13,08,23,4.50
2008,04,13,08,24,4.60
2008,04,13,08,25,4.60
2008,04,13,08,26,4.60
2008,04,13,08,27,4.60
2008,04,13,08,28,4.70
2008,04,13,08,29,4.70
2008,04,13,08,30,4.70
2008,04,13,08,31,4.70
2008,04,13,08,32,4.80
2008,04,13,08,33,4.80
2008,04,13,08,34,4.80
2008,04,13,08,35,4.90
2008,04,13,08,36,4.90
2008,04,13,08,37,4.90
2008,04,13,08,38,5.00
2008,04,13,08,39,5.00
2008,04,13,08,40,5.10
2008,04,13,08,41,5.10
2008,04,13,08,42,5.10
2008,04,13,08,43,5.20
2008,04,13,08,44,5.20
2008,04,13,08,45,5.20
2008,04,13,08,46,5.30
2008,04,13,08,47,5.30
2008,04,13,08,48,5.40
2008,04,13,08,49,5.40
2008,04,13,08,50,5.40
2008,04,13,08,52,5.60
2008,04,13,08,53,5.60
2008,04,13,08,54,5.60
2008,04,13,08,55,5.60
2008,04,13,08,56,5.70
2008,04,13,08,57,5.70
2008,04,13,08,58,5.70
2008,04,13,08,59,5.80
2008,04,13,09,00,5.80
2008,04,13,09,01,5.80
2008,04,13,09,02,5.80
2008,04,13,09,03,5.90
2008,04,13,09,04,5.90
2008,04,13,09,05,5.90
2008,04,13,09,06,6.00
2008,04,13,09,07,6.00
2008,04,13,09,08,6.10
2008,04,13,09,09,6.10
2008,04,13,09,10,6.20
2008,04,13,09,11,6.20
2008,04,13,09,12,6.20
2008,04,13,09,13,6.30
2008,04,13,09,14,6.30
2008,04,13,09,15,6.30
2008,04,13,09,16,6.40
2008,04,13,09,17,6.40
2008,04,13,09,18,6.40
2008,04,13,09,19,6.40
2008,04,13,09,20,6.50
2008,04,13,09,21,6.60
2008,04,13,09,23,6.70
2008,04,13,09,24,6.70
2008,04,13,09,25,6.80
2008,04,13,09,26,6.80
2008,04,13,09,27,6.80
2008,04,13,09,28,6.90
2008,04,13,09,29,6.90
2008,04,13,09,30,7.00
2008,04,13,09,31,7.10
2008,04,13,09,32,7.10
2008,04,13,09,33,7.20
2008,04,13,09,34,7.20
2008,04,13,09,35,7.20
2008,04,13,09,36,7.30
2008,04,13,09,37,7.30
2008,04,13,09,38,7.40
2008,04,13,09,39,7.40
2008,04,13,09,40,7.50
2008,04,13,09,41,7.50
2008,04,13,09,42,7.60
2008,04,13,09,43,7.70
2008,04,13,09,44,7.70
2008,04,13,09,45,7.70
2008,04,13,09,46,7.80
2008,04,13,09,47,7.80
2008,04,13,09,48,7.90
2008,04,13,09,49,7.90
2008,04,13,09,50,8.00
2008,04,13,09,51,8.10
2008,04,13,09,52,8.10
2008,04,13,09,53,8.20
2008,04,13,09,54,8.20
2008,04,13,09,55,8.20
2008,04,13,09,56,8.30
2008,04,13,09,57,8.30
2008,04,13,09,58,8.30
2008,04,13,09,59,8.40
2008,04,13,10,00,8.50
2008,04,13,10,01,8.50
2008,04,13,10,02,8.60
2008,04,13,10,03,8.70
2008,04,13,10,04,8.70
2008,04,13,10,05,8.70
2008,04,13,10,06,8.70
2008,04,13,10,07,8.70
2008,04,13,10,08,8.70
2008,04,13,10,09,8.80
2008,04,13,10,10,8.80
2008,04,13,10,11,8.80
2008,04,13,10,12,8.80
2008,04,13,10,13,8.80
2008,04,13,10,14,8.80
2008,04,13,10,15,8.80
2008,04,13,10,16,8.80
2008,04,13,10,17,8.90
2008,04,13,10,18,8.90
2008,04,13,10,19,9.00
2008,04,13,10,20,9.10
2008,04,13,10,21,9.10
2008,04,13,10,22,9.20
2008,04,13,10,23,9.20
2008,04,13,10,24,9.20
2008,04,13,10,25,9.20
2008,04,13,10,26,9.30
2008,04,13,10,27,9.30
2008,04,13,10,28,9.30
2008,04,13,10,29,9.40
2008,04,13,10,30,9.40
2008,04,13,10,31,9.50
2008,04,13,10,32,9.60
2008,04,13,10,33,9.60
2008,04,13,10,34,9.60
2008,04,13,10,35,9.60
2008,04,13,10,36,9.60
2008,04,13,10,37,9.70
2008,04,13,10,38,9.70
2008,04,13,10,39,9.70
2008,04,13,10,40,9.80
2008,04,13,10,41,9.80
2008,04,13,10,42,9.80
2008,04,13,10,43,9.80
2008,04,13,10,44,9.80
2008,04,13,10,45,9.90
2008,04,13,10,46,10.00
2008,04,13,10,47,10.10
2008,04,13,10,48,10.10
2008,04,13,10,49,10.20
2008,04,13,10,50,10.20
2008,04,13,10,51,10.30
2008,04,13,10,52,10.30
2008,04,13,10,53,10.40
2008,04,13,10,54,10.40
2008,04,13,10,55,10.50
2008,04,13,10,56,10.60
2008,04,13,10,57,10.60
2008,04,13,10,58,10.70
2008,04,13,10,59,10.70
2008,04,13,11,00,10.70
2008,04,13,11,01,10.80
2008,04,13,11,02,10.80
2008,04,13,11,03,10.80
2008,04,13,11,04,10.80
2008,04,13,11,05,10.80
2008,04,13,11,06,10.80
2008,04,13,11,07,10.80
2008,04,13,11,08,10.80
2008,04,13,11,09,10.80
2008,04,13,11,10,10.90
2008,04,13,11,11,10.90
2008,04,13,11,12,10.90
2008,04,13,11,13,11.00
2008,04,13,11,14,11.00
2008,04,13,11,15,11.00
2008,04,13,11,16,11.10
2008,04,13,11,17,11.10
2008,04,13,11,18,11.10
2008,04,13,11,19,11.10
2008,04,13,11,20,11.10
2008,04,13,11,21,11.10
2008,04,13,11,22,11.10
2008,04,13,11,24,11.00
2008,04,13,11,25,11.00
2008,04,13,11,26,10.90
2008,04,13,11,27,10.90
2008,04,13,11,28,10.90
2008,04,13,11,29,10.90
2008,04,13,11,30,10.80
2008,04,13,11,31,10.80
2008,04,13,11,32,10.80
2008,04,13,11,33,10.80
2008,04,13,11,34,10.90
2008,04,13,11,35,10.90
2008,04,13,11,36,10.90
2008,04,13,11,37,11.10
2008,04,13,11,38,11.10
2008,04,13,11,39,11.20
2008,04,13,11,40,11.30
2008,04,13,11,41,11.30
2008,04,13,11,42,11.40
2008,04,13,11,43,11.40
2008,04,13,11,44,11.60
2008,04,13,11,45,11.60
2008,04,13,11,46,11.70
2008,04,13,11,47,11.80
2008,04,13,11,48,11.80
2008,04,13,11,49,11.90
2008,04,13,11,50,12.00
2008,04,13,11,51,12.10
2008,04,13,11,52,12.10
2008,04,13,11,53,12.20
2008,04,13,11,54,12.20
2008,04,13,11,55,12.20
2008,04,13,11,56,12.30
2008,04,13,11,57,12.30
2008,04,13,11,58,12.30
2008,04,13,11,59,12.40
2008,04,13,12,00,12.40
2008,04,13,12,01,12.50
2008,04,13,12,02,12.60
2008,04,13,12,03,12.60
2008,04,13,12,04,12.70
2008,04,13,12,05,12.70
2008,04,13,12,06,12.80
2008,04,13,12,07,12.80
2008,04,13,12,08,12.80
2008,04,13,12,09,12.90
2008,04,13,12,10,12.90
2008,04,13,12,11,12.90
2008,04,13,12,12,13.00
2008,04,13,12,13,13.10
2008,04,13,12,14,13.10
2008,04,13,12,15,13.20
2008,04,13,12,16,13.20
2008,04,13,12,17,13.30
2008,04,13,12,18,13.30
2008,04,13,12,19,13.30
2008,04,13,12,20,13.30
2008,04,13,12,21,13.40
2008,04,13,12,22,13.40
2008,04,13,12,23,13.40
2008,04,13,12,24,13.40
2008,04,13,12,25,13.40
2008,04,13,12,26,13.40
2008,04,13,12,27,13.50
2008,04,13,12,28,13.50
2008,04,13,12,29,13.60
2008,04,13,12,30,13.60
2008,04,13,12,31,13.60
2008,04,13,12,32,13.60
2008,04,13,12,33,13.70
2008,04,13,12,34,13.70
2008,04,13,12,35,13.80
2008,04,13,12,36,13.80
2008,04,13,12,37,13.80
2008,04,13,12,38,13.90
2008,04,13,12,39,13.90
2008,04,13,12,40,13.90
2008,04,13,12,41,14.00
2008,04,13,12,42,14.10
2008,04,13,12,43,14.20
2008,04,13,12,44,14.20
2008,04,13,12,45,14.20
2008,04,13,12,46,14.30
2008,04,13,12,47,14.30
2008,04,13,12,49,14.40
2008,04,13,12,50,14.40
2008,04,13,12,51,14.50
2008,04,13,12,52,14.50
2008,04,13,12,53,14.60
2008,04,13,12,54,14.60
2008,04,13,12,55,14.70
2008,04,13,12,56,14.70
2008,04,13,12,57,14.70
2008,04,13,12,58,14.80
2008,04,13,12,59,14.80
2008,04,13,13,00,14.90
2008,04,13,13,01,14.90
2008,04,13,13,02,14.90
2008,04,13,13,03,14.80
2008,04,13,13,04,14.80
2008,04,13,13,05,14.70
2008,04,13,13,06,14.60
2008,04,13,13,07,14.50
2008,04,13,13,08,14.40
2008,04,13,13,09,14.40
2008,04,13,13,11,14.40
2008,04,13,13,13,14.40
2008,04,13,13,14,14.50
2008,04,13,13,15,14.60
2008,04,13,13,17,14.70
2008,04,13,13,19,14.70
2008,04,13,13,20,14.60
2008,04,13,13,21,14.60
2008,04,13,13,22,14.60
2008,04,13,13,24,14.60
2008,04,13,13,25,14.60
2008,04,13,13,26,14.50
2008,04,13,13,28,14.40
2008,04,13,13,29,14.40
2008,04,13,13,30,14.50
2008,04,13,13,31,14.50
2008,04,13,13,32,14.60
2008,04,13,13,33,14.60
2008,04,13,13,35,14.80
2008,04,13,13,37,15.00
2008,04,13,13,38,15.00
2008,04,13,13,39,15.00
2008,04,13,13,40,15.10
2008,04,13,13,41,15.20
2008,04,13,13,42,15.30
2008,04,13,13,44,15.30
2008,04,13,13,46,15.30
2008,04,13,13,47,15.40
2008,04,13,13,48,15.40
2008,04,13,13,49,15.60
2008,04,13,13,50,15.60
2008,04,13,13,51,15.60
2008,04,13,13,52,15.60
2008,04,13,13,53,15.70
2008,04,13,13,54,15.70
2008,04,13,13,55,15.70
2008,04,13,13,56,15.80
2008,04,13,13,57,15.80
2008,04,13,13,58,15.90
2008,04,13,13,59,15.90
2008,04,13,14,00,15.80
2008,04,13,14,02,15.70
2008,04,13,14,04,15.80
2008,04,13,14,06,15.80
2008,04,13,14,07,15.80
2008,04,13,14,08,15.90
2008,04,13,14,09,15.90
2008,04,13,14,10,16.00
2008,04,13,14,11,16.10
2008,04,13,14,12,16.10
2008,04,13,14,13,16.20
2008,04,13,14,14,16.20
2008,04,13,14,15,16.20
2008,04,13,14,16,16.20
2008,04,13,14,17,16.20
2008,04,13,14,18,16.20
2008,04,13,14,19,16.10
2008,04,13,14,20,16.10
2008,04,13,14,21,16.10
2008,04,13,14,23,15.90
2008,04,13,14,24,15.90
2008,04,13,14,26,15.80
2008,04,13,14,27,15.80
2008,04,13,14,28,15.70
2008,04,13,14,29,15.70
2008,04,13,14,30,15.70
2008,04,13,14,31,15.70
2008,04,13,14,32,15.60
2008,04,13,14,33,15.60
2008,04,13,14,35,15.60
2008,04,13,14,36,15.60
2008,04,13,14,37,15.60
2008,04,13,14,38,15.60
2008,04,13,14,39,15.50
2008,04,13,14,40,15.50
2008,04,13,14,41,15.50
2008,04,13,14,42,15.50
2008,04,13,14,43,15.50
2008,04,13,14,45,15.50
2008,04,13,14,46,15.50
2008,04,13,14,48,15.50
2008,04,13,14,49,15.50
2008,04,13,14,51,15.50
2008,04,13,14,52,15.50
2008,04,13,14,54,15.60
2008,04,13,14,55,15.60
2008,04,13,14,56,15.60
2008,04,13,14,57,15.60
2008,04,13,14,58,15.60
2008,04,13,14,59,15.60
2008,04,13,15,00,15.50
2008,04,13,15,01,15.40
2008,04,13,15,02,15.30
2008,04,13,15,03,15.20
2008,04,13,15,04,15.20
2008,04,13,15,05,15.20
2008,04,13,15,06,15.20
2008,04,13,15,07,15.20
2008,04,13,15,08,15.30
2008,04,13,15,10,15.30
2008,04,13,15,11,15.40
2008,04,13,15,12,15.40
2008,04,13,15,13,15.30
2008,04,13,15,15,15.30
2008,04,13,15,16,15.30
2008,04,13,15,17,15.30
2008,04,13,15,18,15.30
2008,04,13,15,20,15.30
2008,04,13,15,21,15.40
2008,04,13,15,22,15.40
2008,04,13,15,23,15.50
2008,04,13,15,24,15.50
2008,04,13,15,26,15.60
2008,04,13,15,27,15.70
2008,04,13,15,28,15.70
2008,04,13,15,29,15.70
2008,04,13,15,30,15.70
2008,04,13,15,31,15.70
2008,04,13,15,32,15.70
2008,04,13,15,33,15.80
2008,04,13,15,34,15.80
2008,04,13,15,36,15.90
2008,04,13,15,38,15.90
2008,04,13,15,39,15.90
2008,04,13,15,40,15.80
2008,04,13,15,41,15.80
2008,04,13,15,42,15.80
2008,04,13,15,43,15.80
2008,04,13,15,44,15.80
2008,04,13,15,45,15.80
2008,04,13,15,46,15.80
2008,04,13,15,48,15.80
2008,04,13,15,49,15.80
2008,04,13,15,50,15.80
2008,04,13,15,51,15.80
2008,04,13,15,52,15.80
2008,04,13,15,53,15.90
2008,04,13,15,54,15.90
2008,04,13,15,55,15.90
2008,04,13,15,56,15.90
2008,04,13,15,57,16.00
2008,04,13,15,59,16.00
2008,04,13,16,00,16.00
2008,04,13,16,01,16.10
2008,04,13,16,02,16.10
2008,04,13,16,03,16.10
2008,04,13,16,04,16.20
2008,04,13,16,06,16.10
2008,04,13,16,07,16.10
2008,04,13,16,08,16.10
2008,04,13,16,09,16.00
2008,04,13,16,10,16.00
2008,04,13,16,12,16.00
2008,04,13,16,13,16.00
2008,04,13,16,14,16.00
2008,04,13,16,15,16.00
2008,04,13,16,16,15.90
2008,04,13,16,17,15.90
2008,04,13,16,18,15.80
2008,04,13,16,19,15.80
2008,04,13,16,20,15.80
2008,04,13,16,21,15.80
2008,04,13,16,22,15.80
2008,04,13,16,23,15.80
2008,04,13,16,24,15.80
2008,04,13,16,25,15.80
2008,04,13,16,26,15.70
2008,04,13,16,27,15.70
2008,04,13,16,28,15.70
2008,04,13,16,29,15.70
2008,04,13,16,30,15.60
2008,04,13,16,31,15.60
2008,04,13,16,32,15.60
2008,04,13,16,33,15.60
2008,04,13,16,34,15.60
2008,04,13,16,35,15.60
2008,04,13,16,36,15.60
2008,04,13,16,37,15.60
2008,04,13,16,38,15.60
2008,04,13,16,39,15.50
2008,04,13,16,40,15.50
2008,04,13,16,41,15.40
2008,04,13,16,42,15.40
2008,04,13,16,43,15.30
2008,04,13,16,44,15.30
2008,04,13,16,45,15.30
2008,04,13,16,46,15.30
2008,04,13,16,47,15.20
2008,04,13,16,48,15.20
2008,04,13,16,49,15.20
2008,04,13,16,50,15.20
2008,04,13,16,51,15.20
2008,04,13,16,52,15.20
2008,04,13,16,54,15.20
2008,04,13,16,55,15.20
2008,04,13,16,56,15.30
2008,04,13,16,57,15.30
2008,04,13,16,58,15.30
2008,04,13,16,59,15.40
2008,04,13,17,01,15.60
2008,04,13,17,02,15.60
2008,04,13,17,03,15.70
2008,04,13,17,04,15.70
2008,04,13,17,05,15.80
2008,04,13,17,06,15.80
2008,04,13,17,07,15.80
2008,04,13,17,08,15.90
2008,04,13,17,09,15.90
2008,04,13,17,10,15.90
2008,04,13,17,11,15.90
2008,04,13,17,12,15.90
2008,04,13,17,13,15.90
2008,04,13,17,14,15.90
2008,04,13,17,15,15.90
2008,04,13,17,16,15.80
2008,04,13,17,17,15.70
2008,04,13,17,18,15.70
2008,04,13,17,19,15.60
2008,04,13,17,20,15.40
2008,04,13,17,21,15.40
2008,04,13,17,22,15.30
2008,04,13,17,23,15.20
2008,04,13,17,25,15.10
2008,04,13,17,27,15.00
2008,04,13,17,28,15.00
2008,04,13,17,29,15.00
2008,04,13,17,30,15.00
2008,04,13,17,31,14.90
2008,04,13,17,32,14.80
2008,04,13,17,33,14.80
2008,04,13,17,34,14.70
2008,04,13,17,35,14.60
2008,04,13,17,36,14.60
2008,04,13,17,37,14.60
2008,04,13,17,38,14.50
2008,04,13,17,39,14.40
2008,04,13,17,40,14.40
2008,04,13,17,41,14.30
2008,04,13,17,42,14.30
2008,04,13,17,43,14.30
2008,04,13,17,44,14.30
2008,04,13,17,45,14.30
2008,04,13,17,46,14.20
2008,04,13,17,47,14.20
2008,04,13,17,49,14.20
2008,04,13,17,50,14.20
2008,04,13,17,51,14.10
2008,04,13,17,52,14.10
2008,04,13,17,53,14.10
2008,04,13,17,54,14.00
2008,04,13,17,55,14.00
2008,04,13,17,56,13.90
2008,04,13,17,57,13.90
2008,04,13,17,58,13.90
2008,04,13,17,59,13.80
2008,04,13,18,00,13.80
2008,04,13,18,01,13.80
2008,04,13,18,02,13.80
2008,04,13,18,03,13.70
2008,04,13,18,04,13.70
2008,04,13,18,05,13.60
2008,04,13,18,06,13.50
2008,04,13,18,07,13.40
2008,04,13,18,08,13.40
2008,04,13,18,09,13.40
2008,04,13,18,10,13.40
2008,04,13,18,11,13.30
2008,04,13,18,12,13.30
2008,04,13,18,13,13.30
2008,04,13,18,14,13.30
2008,04,13,18,15,13.20
2008,04,13,18,16,13.20
2008,04,13,18,17,13.20
2008,04,13,18,18,13.10
2008,04,13,18,19,13.10
2008,04,13,18,20,13.10
2008,04,13,18,21,13.10
2008,04,13,18,22,13.00
2008,04,13,18,23,12.90
2008,04,13,18,24,12.90
2008,04,13,18,25,12.80
2008,04,13,18,26,12.80
2008,04,13,18,27,12.70
2008,04,13,18,28,12.70
2008,04,13,18,29,12.70
2008,04,13,18,30,12.70
2008,04,13,18,31,12.70
2008,04,13,18,32,12.70
2008,04,13,18,33,12.70
2008,04,13,18,34,12.80
2008,04,13,18,35,12.80
2008,04,13,18,36,12.90
2008,04,13,18,38,13.10
2008,04,13,18,39,13.10
2008,04,13,18,40,13.20
2008,04,13,18,41,13.30
2008,04,13,18,42,13.30
2008,04,13,18,43,13.40
2008,04,13,18,44,13.40
2008,04,13,18,45,13.50
2008,04,13,18,46,13.50
2008,04,13,18,47,13.50
2008,04,13,18,48,13.50